When you browse on this site, cookies collect data to enhance your experience and personalize the content and advertising you see.
Visit our Privacy Policy to learn more. By continuing to use the site, you agree to this use of cookies and data.
  • In France
  • List of Countries
  • For 7 days
  • Water Temperature
  • Satellite Maps
  • Weather Map
  • Weather Widgets
  • user-avatar
    Login

    Hourly Weather Graz

    Today, 18 April, Thursday

    Time Temperature Precipitation Wind Pressure Humidity
    00:00 +8°C° 0 mm 1 mps 730 mmHg 88%
    01:00 +8°C° 0 mm 1 mps 730 mmHg 87%
    02:00 +8°C° 0 mm 1 mps 730 mmHg 88%
    03:00 +7°C° 0 mm 1 mps 730 mmHg 89%
    04:00 +7°C° 0 mm 1 mps 730 mmHg 90%
    05:00 +7°C° 0 mm 0 mps 730 mmHg 85%
    06:00 +9°C° 0 mm 0 mps 731 mmHg 81%
    07:00 +10°C° 0 mm 0 mps 731 mmHg 75%
    08:00 +12°C° 0 mm 1 mps 731 mmHg 69%
    09:00 +13°C° 0 mm 1 mps 731 mmHg 63%
    10:00 +15°C° 0 mm 2 mps 731 mmHg 58%
    11:00 +15°C° 0 mm 2 mps 731 mmHg 55%
    12:00 +16°C° 0 mm 2 mps 731 mmHg 52%
    13:00 +17°C° 0 mm 2 mps 731 mmHg 48%
    14:00 +17°C° 0 mm 2 mps 731 mmHg 49%
    15:00 +17°C° 0 mm 3 mps 731 mmHg 49%
    16:00 +16°C° 0 mm 3 mps 731 mmHg 50%
    17:00 +14°C° 0 mm 2 mps 731 mmHg 59%
    18:00 +12°C° 0 mm 1 mps 731 mmHg 68%
    19:00 +10°C° 0 mm 1 mps 731 mmHg 77%
    20:00 +10°C° 0 mm 1 mps 732 mmHg 79%
    21:00 +9°C° 0 mm 1 mps 732 mmHg 81%
    22:00 +8°C° 0 mm 1 mps 733 mmHg 83%
    23:00 +8°C° 0 mm 1 mps 733 mmHg 83%

    Tomorrow, 19 April, Friday

    Time Temperature Precipitation Wind Pressure Humidity
    00:00 +8°C° 0 mm 1 mps 733 mmHg 83%
    01:00 +7°C° 0 mm 1 mps 733 mmHg 83%
    02:00 +7°C° 0 mm 1 mps 734 mmHg 82%
    03:00 +7°C° 0 mm 1 mps 734 mmHg 82%
    04:00 +7°C° 0 mm 1 mps 734 mmHg 81%
    05:00 +8°C° 0 mm 1 mps 734 mmHg 77%
    06:00 +10°C° 0 mm 1 mps 734 mmHg 73%
    07:00 +11°C° 0 mm 1 mps 734 mmHg 69%
    08:00 +13°C° 0 mm 1 mps 734 mmHg 61%
    09:00 +16°C° 0 mm 1 mps 734 mmHg 54%
    10:00 +19°C° 0 mm 1 mps 734 mmHg 46%
    11:00 +20°C° 0 mm 1 mps 734 mmHg 43%
    12:00 +21°C° 0 mm 1 mps 734 mmHg 40%
    13:00 +20°C° 0 mm 2 mps 734 mmHg 38%
    14:00 +20°C° 0 mm 2 mps 733 mmHg 38%
    15:00 +20°C° 0 mm 2 mps 733 mmHg 39%
    16:00 +19°C° 0 mm 2 mps 733 mmHg 39%
    17:00 +18°C° 0 mm 1 mps 733 mmHg 48%
    18:00 +15°C° 0 mm 1 mps 732 mmHg 57%
    19:00 +11°C° 0 mm 0 mps 732 mmHg 66%
    20:00 +11°C° 0 mm 0 mps 733 mmHg 68%
    21:00 +11°C° 0 mm 1 mps 733 mmHg 70%
    22:00 +10°C° 0 mm 1 mps 733 mmHg 73%
    23:00 +10°C° 0 mm 1 mps 733 mmHg 73%

    Day after tomorrow, 20 April, Saturday

    Time Temperature Precipitation Wind Pressure Humidity
    00:00 +10°C° 0 mm 1 mps 733 mmHg 74%
    01:00 +9°C° 0 mm 1 mps 733 mmHg 75%
    02:00 +9°C° 0 mm 1 mps 733 mmHg 76%
    03:00 +9°C° 0 mm 1 mps 733 mmHg 77%
    04:00 +8°C° 0 mm 1 mps 733 mmHg 78%
    05:00 +10°C° 0 mm 1 mps 733 mmHg 74%
    06:00 +11°C° 0 mm 1 mps 733 mmHg 70%
    07:00 +11°C° 0 mm 0 mps 733 mmHg 67%
    08:00 +14°C° 0 mm 1 mps 733 mmHg 61%
    09:00 +16°C° 0 mm 1 mps 733 mmHg 54%
    10:00 +18°C° 0 mm 1 mps 733 mmHg 48%
    11:00 +18°C° 0 mm 2 mps 733 mmHg 45%
    12:00 +19°C° 0 mm 2 mps 733 mmHg 42%
    13:00 +20°C° 0 mm 2 mps 732 mmHg 38%
    14:00 +19°C° 0 mm 2 mps 732 mmHg 39%
    15:00 +19°C° 0 mm 2 mps 731 mmHg 40%
    16:00 +19°C° 0 mm 2 mps 731 mmHg 41%
    17:00 +16°C° 0 mm 2 mps 731 mmHg 49%
    18:00 +14°C° 0 mm 1 mps 730 mmHg 58%
    19:00 +12°C° 0 mm 1 mps 730 mmHg 67%
    20:00 +11°C° 0 mm 1 mps 730 mmHg 69%
    21:00 +10°C° 0 mm 1 mps 730 mmHg 72%
    22:00 +9°C° 0 mm 0 mps 731 mmHg 74%
    23:00 +9°C° 0 mm 1 mps 730 mmHg 76%

    21 April, Sunday

    Time Temperature Precipitation Wind Pressure Humidity
    00:00 +9°C° 0 mm 1 mps 730 mmHg 78%
    01:00 +9°C° 0 mm 1 mps 730 mmHg 80%
    02:00 +8°C° 0 mm 1 mps 729 mmHg 82%
    03:00 +8°C° 0 mm 1 mps 729 mmHg 83%
    04:00 +8°C° 0 mm 1 mps 729 mmHg 85%
    05:00 +9°C° 0 mm 1 mps 729 mmHg 80%
    06:00 +10°C° 0 mm 0 mps 729 mmHg 75%
    07:00 +11°C° 0 mm 0 mps 728 mmHg 70%
    08:00 +14°C° 0 mm 1 mps 728 mmHg 62%
    09:00 +16°C° 0 mm 1 mps 728 mmHg 55%
    10:00 +19°C° 0 mm 1 mps 728 mmHg 47%
    11:00 +20°C° 0 mm 1 mps 728 mmHg 44%
    12:00 +20°C° 0 mm 2 mps 727 mmHg 42%
    13:00 +21°C° 0 mm 2 mps 727 mmHg 39%
    14:00 +20°C° 0 mm 2 mps 726 mmHg 40%
    15:00 +20°C° 0 mm 2 mps 726 mmHg 40%
    16:00 +20°C° 0 mm 3 mps 725 mmHg 41%
    17:00 +18°C° 0 mm 2 mps 725 mmHg 50%
    18:00 +15°C° 0 mm 2 mps 725 mmHg 59%
    19:00 +13°C° 0 mm 1 mps 725 mmHg 67%
    20:00 +12°C° 0 mm 1 mps 725 mmHg 71%
    21:00 +11°C° 0 mm 1 mps 725 mmHg 74%
    22:00 +10°C° 0 mm 1 mps 725 mmHg 78%
    23:00 +10°C° 0 mm 1 mps 725 mmHg 79%

    22 April, Monday

    Time Temperature Precipitation Wind Pressure Humidity
    00:00 +9°C° 0 mm 1 mps 725 mmHg 80%
    01:00 +9°C° 0 mm 1 mps 724 mmHg 81%
    02:00 +8°C° 0 mm 1 mps 724 mmHg 83%
    03:00 +8°C° 0 mm 1 mps 724 mmHg 84%
    04:00 +7°C° 0 mm 1 mps 723 mmHg 86%
    05:00 +9°C° 0 mm 1 mps 723 mmHg 79%
    06:00 +10°C° 0 mm 1 mps 723 mmHg 73%
    07:00 +10°C° 0 mm 0 mps 723 mmHg 67%
    08:00 +13°C° 0 mm 1 mps 723 mmHg 59%
    09:00 +15°C° 0 mm 1 mps 723 mmHg 51%
    10:00 +18°C° 0 mm 2 mps 722 mmHg 43%
    11:00 +18°C° 0 mm 2 mps 722 mmHg 41%
    12:00 +19°C° 0 mm 3 mps 722 mmHg 39%
    13:00 +20°C° 0 mm 4 mps 721 mmHg 37%
    14:00 +20°C° 0 mm 4 mps 721 mmHg 39%
    15:00 +20°C° 0 mm 4 mps 720 mmHg 41%
    16:00 +20°C° 0 mm 5 mps 720 mmHg 43%
    17:00 +18°C° 0 mm 4 mps 719 mmHg 52%
    18:00 +16°C° 0 mm 3 mps 719 mmHg 61%
    19:00 +14°C° 0 mm 2 mps 719 mmHg 70%
    20:00 +13°C° 0 mm 2 mps 719 mmHg 72%
    21:00 +13°C° 0 mm 1 mps 719 mmHg 75%
    22:00 +12°C° 0 mm 1 mps 719 mmHg 78%
    23:00 +12°C° 0 mm 1 mps 719 mmHg 80%

    23 April, Tuesday

    Time Temperature Precipitation Wind Pressure Humidity
    00:00 +10°C° 0 mm 0 mps 718 mmHg 83%
    01:00 +9°C° 0 mm 0 mps 718 mmHg 85%
    02:00 +11°C° 0.6 mm 1 mps 718 mmHg 88%
    03:00 +11°C° 0.6 mm 1 mps 718 mmHg 91%
    04:00 +10°C° 0.6 mm 2 mps 718 mmHg 94%
    05:00 +10°C° 0.6 mm 2 mps 718 mmHg 95%
    06:00 +10°C° 0.6 mm 2 mps 718 mmHg 96%
    07:00 +10°C° 0.6 mm 2 mps 718 mmHg 96%
    08:00 +10°C° 0.9 mm 2 mps 718 mmHg 96%
    09:00 +10°C° 0.9 mm 2 mps 718 mmHg 96%
    10:00 +10°C° 0.9 mm 2 mps 718 mmHg 96%
    11:00 +12°C° 0.6 mm 1 mps 718 mmHg 95%
    12:00 +12°C° 0.6 mm 1 mps 718 mmHg 94%
    13:00 +13°C° 0.6 mm 1 mps 717 mmHg 94%
    14:00 +13°C° 3 mm 1 mps 717 mmHg 95%
    15:00 +13°C° 3 mm 1 mps 717 mmHg 96%
    16:00 +13°C° 3 mm 1 mps 717 mmHg 97%
    17:00 +13°C° 1.8 mm 1 mps 717 mmHg 97%
    18:00 +12°C° 1.8 mm 1 mps 717 mmHg 97%
    19:00 +11°C° 1.8 mm 0 mps 717 mmHg 97%
    20:00 +11°C° 0.3 mm 0 mps 718 mmHg 97%
    21:00 +11°C° 0.3 mm 0 mps 718 mmHg 97%
    22:00 +11°C° 0.3 mm 0 mps 719 mmHg 97%
    23:00 +11°C° 0.1 mm 0 mps 719 mmHg 98%
    Show more